Simultaneous Nadir Overpasses (SNOs) Predictions

Prediction of SNOs between GOES-14 and NPP Satellite Orbit:

Table of predicted SNOs for the next 14.0 days since TLE Epoch: 1/28/2023
Index Date Time (GOES-14) GOES-14 Lat,Lon NPP Lat,Lon Distance(km) Time Diff (sec)
1 01/28/2023 08:25:32 -0.04,-104.72 0.02,-105.06 37.46 80
2 01/29/2023 08:09:28 -0.04,-104.74 -0.98,-100.52 480.56 80
3 01/30/2023 20:31:23 0.03,-104.38 -0.30,-105.80 162.09 80
4 01/31/2023 20:09:59 0.03,-104.39 0.71,-101.27 355.40 80
5 02/02/2023 08:31:48 -0.02,-104.78 0.41,-106.55 202.45 80
6 02/03/2023 08:15:45 -0.01,-104.79 -0.66,-102.03 315.68 80
7 02/04/2023 20:37:40 0.01,-104.44 -0.61,-107.31 325.78 80
8 02/05/2023 20:16:15 0.01,-104.45 0.40,-102.77 191.61 80
9 02/07/2023 08:38:05 -0.01,-104.83 0.71,-108.06 367.38 80
10 02/08/2023 08:22:00 -0.01,-104.85 -0.31,-103.52 151.03 80
11 02/09/2023 20:43:56 0.01,-104.52 -0.95,-108.81 488.47 80
12 02/10/2023 20:22:31 0.02,-104.53 0.07,-104.27 28.89 80
